Flag for France Weather past 2 weeks in Montpellier, France

Now
72 °F

Passing clouds.


Feels Like: 76 °F
Forecast: 49 / 77 °F
Wind: 13 mph from North

Location: Montpellier Airport

Current Time: May 27, 2015 at 1:05:23 PM

Latest Report: May 27, 2015 at 12:30 PM


Visibility: N/A

Pressure: 30.07 "Hg

Humidity: 27%

Dew point: 36 °F

Location of MontpellierLocation

Historic Weather in Montpellier — Graph

°F

Montpellier temperature yesterday

Maximum temperature yesterday: 77 °F (at 4:30 PM)
Minimum temperature yesterday: 61 °F (at 11:30 PM)
Average temperature yesterday: 69 °F

Past Weeks' High & Low Weather Summary

 TemperatureHumidityPressure
High84 °F (May 14, 5:00 PM)94% (May 13, 2:30 AM)30.27 "Hg (May 13, 2:30 AM)
Low52 °F (May 21, 2:30 AM)21% (May 21, 5:30 PM)29.77 "Hg (May 14, 5:00 PM)
Average66 °F50%30.01 "Hg
* Reported May 12 12:00 Noon — May 27 12:00 Noon, Montpellier, Weather by CustomWeather, © 2015

Note: Actual official high and low records may vary slightly from our data, if they occured in-between our weather recording intervals... More about our weather records

Advertising

Montpellier weather history for previous 24 hours

 ConditionsComfort  
Time TempWeatherWind HumidityBarometerVisibility
12:00 PM
Wed, May 27
72 °FPassing clouds.17 mph29%30.07 "HgN/A
11:30 AM70 °FPassing clouds.17 mph31%30.07 "HgN/A
11:00 AM68 °FPassing clouds.17 mph33%30.07 "HgN/A
10:30 AM68 °FSunny.21 mph33%30.07 "Hg10 mi
10:00 AM66 °FPassing clouds.17 mph35%30.07 "HgN/A
9:30 AM64 °FSunny.16 mph34%30.07 "Hg10 mi
9:00 AM63 °FPassing clouds.17 mph37%30.07 "HgN/A
8:30 AM61 °FSunny.8 mph42%30.07 "Hg10 mi
8:00 AM59 °FSunny.12 mph42%30.07 "Hg10 mi
7:30 AM55 °FSunny.10 mph47%30.07 "Hg10 mi
7:00 AM54 °FClear.9 mph51%30.07 "Hg10 mi
6:30 AM54 °FClear.7 mph51%30.07 "Hg10 mi
5:30 AM55 °FClear.9 mph47%30.07 "Hg10 mi
5:00 AM57 °FClear.12 mph44%30.07 "Hg10 mi
4:30 AM57 °FClear.10 mph44%30.07 "Hg10 mi
4:00 AM57 °FPassing clouds.9 mph44%30.04 "HgN/A
3:30 AM57 °FClear.12 mph44%30.07 "Hg10 mi
3:00 AM57 °FClear.7 mph44%30.07 "Hg10 mi
2:30 AM57 °FClear.8 mph44%30.07 "Hg10 mi
2:00 AM57 °FClear.9 mph44%30.07 "Hg10 mi
1:30 AM57 °FClear.10 mph44%30.07 "Hg10 mi
1:00 AM57 °FClear.10 mph48%30.07 "Hg10 mi
12:30 AM61 °FClear.15 mph39%30.07 "Hg10 mi
12:00 AM61 °FClear.17 mph42%30.07 "Hg10 mi
11:30 PM
Tue, May 26
61 °FClear.7 mph39%30.07 "Hg10 mi
11:00 PM63 °FClear.10 mph37%30.04 "Hg10 mi
10:30 PM64 °FClear.12 mph34%30.04 "Hg10 mi
10:00 PM64 °FSunny.12 mph34%30.04 "Hg10 mi
9:30 PM66 °FSunny.17 mph35%30.01 "Hg10 mi
9:00 PM68 °FSunny.21 mph33%30.01 "Hg10 mi
8:30 PM70 °FSunny.20 mph33%30.01 "Hg10 mi
8:00 PM72 °FSunny.21 mph31%29.98 "Hg10 mi
7:30 PM73 °FSunny.24 mph29%29.95 "Hg10 mi
7:00 PM73 °FSunny.23 mph29%29.95 "Hg10 mi
6:30 PM75 °FPassing clouds.23 mph29%29.95 "HgN/A
6:00 PM75 °FPassing clouds.24 mph29%29.95 "HgN/A
5:30 PM77 °FPassing clouds.20 mph28%29.92 "HgN/A
5:00 PM75 °FPassing clouds.18 mph31%29.92 "HgN/A
4:30 PM77 °FPassing clouds.17 mph30%29.92 "HgN/A
4:00 PM75 °FPassing clouds.20 mph29%29.95 "HgN/A
3:30 PM75 °FPassing clouds.21 mph29%29.95 "HgN/A
3:00 PM75 °FPassing clouds.20 mph31%29.95 "HgN/A
2:40 PM75 °FSunny.20 mph34%29.95 "Hg10 mi
2:30 PM75 °FPassing clouds.20 mph31%29.95 "HgN/A
2:00 PM73 °FSunny.21 mph33%29.95 "Hg10 mi
1:30 PM73 °FSunny.22 mph33%29.95 "Hg10 mi
1:14 PM72 °FSunny.22 mph33%29.95 "Hg10 mi
Weather by CustomWeather, © 2015

See weather overviewHow to use our weather pages